Location: 10033 Water Well
(34.0865°N, 106.8959°W)
Time: 16:52:07
(UTC+00:00)

AQUARIUS - Pass Details

Date: 13 January 2026
Orbit: 633 x 636 km, 98.0° (Epoch: 11 February)

Event Time Altitude Azimuth Distance (km) Brightness Sun altitude
Rises 00:54:47 0° 162° (SSE) 2,918 7.6 -7.7°
Reaches altitude 10° 00:56:58 10° 160° (SSE) 2,014 6.7 -8.1°
Maximum altitude 01:01:20 73° 77° (ENE) 666 4.0 -9.0°
Drops below altitude 10° 01:05:45 10° 352° (N) 2,027 6.6 -9.8°
Sets 01:07:57 0° 351° (N) 2,939 7.4 -10.3°
